Flight Track Log - Related Links

Times and Time Zones

All times are in EDT time to prevent confusion due to time zone crossing. See the KAP17 flight status page for this flight to view local times or setup timezone preferences in your user account.

Time Position Orientation Groundspeed Altitude Reporting Facility
EDT Latitude Longitude Course Direction KTS MPH feet Rate Location/Type
Sat 04:32:51 PM 43.5383 -72.4028 196° South 156 180 3,900  Level Boston Center
Sat 04:33:51 PM 43.5092 -72.4144 196° South 137 158 4,300 500 Climbing Boston Center
Sat 04:34:51 PM 43.4758 -72.4286 197° South 130 150 4,900 550 Climbing Boston Center
Sat 04:35:00 PM 43.4217 -72.4209 196° South  Level Estimated
Sat 04:35:51 PM 43.4467 -72.4431 200° South 130 150 5,400  Level Boston Center
Sat 04:36:51 PM 43.4175 -72.4544 196° South 130 150 5,900 550 Climbing Boston Center
Sat 04:37:51 PM 43.3861 -72.4717 202° Southwest 125 144 6,500 550 Climbing Boston Center
Sat 04:38:51 PM 43.3550 -72.4828 195° South 125 144 7,000 550 Climbing Boston Center
Sat 04:39:51 PM 43.3278 -72.4944 197° South 125 144 7,600 550 Climbing Boston Center
Sat 04:40:51 PM 43.2964 -72.5056 194° South 125 144 8,100 550 Climbing Boston Center
Sat 04:41:51 PM 43.2672 -72.5200 200° South 120 138 8,700 500 Climbing Boston Center
Sat 04:42:51 PM 43.2381 -72.5342 199° South 120 138 9,100 400 Climbing Boston Center
Sat 04:43:51 PM 43.2069 -72.5483 198° South 120 138 9,500 400 Climbing Boston Center
Sat 04:44:51 PM 43.1756 -72.5653 201° Southwest 125 144 9,900 250 Climbing Boston Center
Sat 04:45:51 PM 43.1422 -72.5822 200° South 125 144 10,000 100 Climbing Boston Center
Sat 04:46:51 PM 43.1025 -72.5994 198° South 140 161 10,100 50 Climbing Boston Center
Sat 04:47:51 PM 43.0631 -72.6164 197° South 146 168 10,100  Level Boston Center
Sat 04:48:51 PM 43.0214 -72.6333 197° South 146 168 10,100 -50 Level Boston Center
Sat 04:49:51 PM 42.9839 -72.6472 195° South 146 168 10,000 -50 Descending Boston Center
Sat 04:50:51 PM 42.9442 -72.6642 197° South 146 168 10,000  Level Boston Center
Sat 04:51:51 PM 42.9067 -72.6839 201° Southwest 146 168 10,000  Level Boston Center
Sat 04:52:51 PM 42.8689 -72.7008 198° South 146 168 10,000  Level Boston Center
Sat 04:53:51 PM 42.8272 -72.7175 196° South 146 168 10,000  Level Boston Center
Sat 04:54:51 PM 42.7897 -72.7372 201° Southwest 146 168 10,000  Level Boston Center
Sat 04:55:51 PM 42.7542 -72.7511 196° South 146 168 10,000  Level Boston Center
Sat 04:56:27 PM 42.7250 -72.7622 196° South 142 163 10,000  Level Boston Center
Sat 04:57:10 PM 42.6981 -72.7764 201° Southwest 141 162 10,000  Level Boston Center
Sat 04:57:51 PM 42.6769 -72.7847 196° South 146 168 10,000  Level Boston Center
Sat 04:58:51 PM 42.6417 -72.8014 199° South 146 168 10,000  Level Boston Center
Sat 04:59:51 PM 42.6019 -72.8125 192° South 146 168 10,000  Level Boston Center
Sat 05:00:51 PM 42.5603 -72.8319 199° South 146 168 10,000  Level Boston Center
Sat 05:02:03 PM 42.5164 -72.8514 198° South 146 168 10,000  Level Boston Center
Sat 05:03:03 PM 42.4789 -72.8681 198° South 146 168 10,000  Level Boston Center
Sat 05:04:03 PM 42.4433 -72.8847 199° South 146 168 10,000  Level Boston Center
Sat 05:05:03 PM 42.4100 -72.9011 200° South 146 168 10,000  Level Boston Center
Sat 05:06:03 PM 42.3764 -72.9264 209° Southwest 140 161 10,000  Level Boston Center
Sat 05:06:35 PM 42.3597 -72.9458 221° Southwest 133 153 10,000  Level Boston Center
Sat 05:07:15 PM 42.3450 -72.9625 220° Southwest 140 161 10,000  Level Boston Center
Sat 05:08:15 PM 42.3136 -72.9989 221° Southwest 140 161 10,000  Level Boston Center
Sat 05:09:15 PM 42.2864 -73.0267 217° Southwest 135 155 10,000  Level Boston Center
Sat 05:10:15 PM 42.2506 -73.0683 221° Southwest 141 162 10,000  Level Boston Center
Sat 05:11:15 PM 42.2297 -73.0961 225° Southwest 141 162 10,000  Level Boston Center
Sat 05:12:15 PM 42.1942 -73.1322 217° Southwest 135 155 10,000  Level Boston Center
Sat 05:13:15 PM 42.1708 -73.1600 221° Southwest 135 155 10,000  Level Boston Center
Sat 05:14:15 PM 42.1436 -73.1906 220° Southwest 125 144 10,000 -150 Level Boston Center
Sat 05:15:15 PM 42.1164 -73.2181 217° Southwest 130 150 9,700 -450 Descending Boston Center
Sat 05:16:15 PM 42.0786 -73.2625 221° Southwest 152 175 9,100 -550 Descending Boston Center
Sat 05:17:15 PM 42.0511 -73.2983 224° Southwest 162 186 8,600 -500 Descending Boston Center
Sat 05:18:15 PM 42.0114 -73.3397 218° Southwest 162 186 8,100 -400 Descending Boston Center
Sat 05:19:15 PM 41.9756 -73.3783 219° Southwest 157 181 7,800 -500 Descending Boston Center
Sat 05:20:15 PM 41.9397 -73.4114 214° Southwest 157 181 7,100 -650 Descending Boston Center
Sat 05:21:15 PM 41.8978 -73.4469 212° Southwest 173 199 6,500 -550 Descending Boston Center
Sat 05:22:15 PM 41.8600 -73.4797 213° Southwest 173 199 6,000 -250 Descending Boston Center
Sat 05:23:15 PM 41.8242 -73.5097 212° Southwest 168 193 6,000  Level Boston Center
Sat 05:24:15 PM 41.7886 -73.5314 204° Southwest 156 180 6,000  Level Boston Center
Sat 05:25:15 PM 41.7489 -73.5419 191° South 146 168 6,000  Level Boston Center
Sat 05:26:15 PM 41.7092 -73.5525 191° South 146 168 6,000  Level Boston Center
Sat 05:27:56 PM 41.6500 -73.5667 190° South 144 166 6,000  Level New York TRACON
Sat 05:28:56 PM 41.6000 -73.5833 194° South 147 169 6,000 -50 Level New York TRACON
Sat 05:29:56 PM 41.5667 -73.6000 201° Southwest 147 169 5,900 -350 Descending New York TRACON
Sat 05:30:56 PM 41.5333 -73.6333 217° Southwest 166 191 5,300 -500 Descending New York TRACON
Sat 05:31:56 PM 41.4833 -73.6667 207° Southwest 162 186 4,900 -400 Descending New York TRACON
Sat 05:32:56 PM 41.4500 -73.7000 217° Southwest 161 185 4,500 -450 Descending New York TRACON
Sat 05:33:56 PM 41.4167 -73.7333 217° Southwest 165 190 4,000 -550 Descending New York TRACON
Sat 05:34:56 PM 41.3833 -73.7667 217° Southwest 166 191 3,400 -500 Descending New York TRACON
Sat 05:35:56 PM 41.3333 -73.8000 207° Southwest 166 191 3,000 -200 Descending New York TRACON
Sat 05:36:56 PM 41.3000 -73.8333 217° Southwest 149 171 3,000  Level New York TRACON

Login

Don't have an account? Register now (free) for customized features, flight alerts, and more!